Date String (YYYY-MM-DD hh:mm:ss) UTC,Instrument flags,Ambient pressure (hPa),Sample flow (lpm),Bypass flow (lpm),Sample temperature (°C),Ambient temperature (°C),ASC tube jacket temperature (°C),LED temperature (°C),Box temperature (°C),Sample RH (%),Span deviation,Mass concentration (μg/m³),Mass concentration (μg/m³),Mass concentration (μg/m³)
DateTimeUTC,F1_M11,P_M11,Q1_M11,Q2_M11,T1_M11,T2_M11,T3_M11,T4_M11,T5_M11,U1_M11,ZSPAN_M11,X0_M11,X2_M11,X1_M11
2022-05-24 04:00:00,,0827.0,5.00,0.00,29.5,28.5,00.0,38.5,31.3,18.3,0000.0,0008.27,0004.12,0003.64
2022-05-24 04:01:00,,0827.0,5.00,0.00,29.5,28.5,00.0,38.5,31.3,18.2,0000.0,0007.96,0004.19,0003.69
2022-05-24 04:02:00,,0826.9,5.00,0.00,29.6,28.5,00.0,38.5,31.3,18.3,0000.0,0008.00,0004.25,0003.74
2022-05-24 04:03:00,,0826.9,5.00,0.00,29.6,28.5,00.0,38.5,31.3,18.4,0000.0,0008.13,0004.32,0003.78
2022-05-24 04:04:00,,0827.0,5.01,0.00,29.6,28.5,00.0,38.5,31.3,18.3,0000.0,0008.32,0004.36,0003.80
2022-05-24 04:05:00,,0827.0,4.99,0.00,29.6,28.5,00.0,38.5,31.4,18.4,0000.0,0008.34,0004.38,0003.83
2022-05-24 04:06:00,,0827.0,4.99,0.00,29.6,28.5,00.0,38.5,31.4,18.0,0000.0,0008.39,0004.41,0003.86
2022-05-24 04:07:00,,0826.9,5.00,0.00,29.6,28.5,00.0,38.5,31.4,17.8,0000.0,0008.39,0004.43,0003.88
2022-05-24 04:08:00,,0826.9,5.00,0.00,29.6,28.5,00.0,38.5,31.4,17.8,0000.0,0008.43,0004.44,0003.91
2022-05-24 04:09:00,,0827.0,5.01,0.00,29.6,28.5,00.0,38.5,31.4,17.8,0000.0,0008.50,0004.46,0003.94
2022-05-24 04:10:00,,0826.9,5.00,0.00,29.6,28.5,00.0,38.5,31.4,17.8,0000.0,0008.44,0004.49,0003.95
2022-05-24 04:11:00,,0827.0,4.99,0.00,29.6,28.5,00.0,38.5,31.4,17.6,0000.0,0007.94,0004.50,0003.96
2022-05-24 04:12:00,,0827.0,5.00,0.00,29.6,28.5,00.0,38.5,31.4,17.7,0000.0,0007.89,0004.50,0003.97
2022-05-24 04:13:00,,0827.0,5.01,0.00,29.6,28.5,00.0,38.5,31.4,17.8,0000.0,0007.88,0004.50,0003.97
2022-05-24 04:14:00,,0826.9,5.01,0.00,29.6,28.5,00.0,38.5,31.4,17.9,0000.0,0007.79,0004.48,0003.98
2022-05-24 04:15:00,,0826.9,5.00,0.00,29.6,28.5,00.0,38.5,31.4,17.9,0000.0,0007.66,0004.49,0004.00
2022-05-24 04:16:00,,0826.9,5.00,0.00,29.6,28.5,00.0,38.5,31.4,17.9,0000.0,0007.55,0004.49,0004.02
2022-05-24 04:17:00,,0826.9,5.01,0.00,29.6,28.5,00.0,38.5,31.4,17.9,0000.0,0007.49,0004.49,0004.03
2022-05-24 04:18:00,,0826.9,5.01,0.00,29.6,28.5,00.0,38.5,31.4,18.0,0000.0,0007.45,0004.48,0004.04
2022-05-24 04:19:00,,0827.0,5.00,0.00,29.6,28.5,00.0,38.5,31.4,18.0,0000.0,0007.38,0004.47,0004.04
2022-05-24 04:20:00,,0827.0,5.00,0.00,29.6,28.5,00.0,38.5,31.4,18.0,0000.0,0007.87,0004.47,0004.04
2022-05-24 04:21:00,,0827.0,5.00,0.00,29.6,28.5,00.0,38.5,31.4,18.1,0000.0,0008.18,0004.46,0004.04
2022-05-24 04:22:00,,0826.9,5.00,0.00,29.6,28.5,00.0,38.5,31.4,18.2,0000.0,0008.38,0004.47,0004.04
2022-05-24 04:23:00,,0827.0,5.00,0.00,29.6,28.5,00.0,38.5,31.4,18.1,0000.0,0008.61,0004.43,0004.02
2022-05-24 04:24:00,,0826.9,5.00,0.00,29.6,28.5,00.0,38.5,31.4,18.0,0000.0,0008.73,0004.44,0004.01
2022-05-24 04:25:00,,0826.9,5.01,0.00,29.6,28.5,00.0,38.5,31.4,17.9,0000.0,0008.77,0004.45,0004.01
2022-05-24 04:26:00,,0826.9,5.00,0.00,29.6,28.5,00.0,38.5,31.4,18.0,0000.0,0008.78,0004.43,0003.99
2022-05-24 04:27:00,,0826.9,5.00,0.00,29.6,28.5,00.0,38.5,31.4,18.1,0000.0,0008.82,0004.44,0003.99
2022-05-24 04:28:00,,0826.9,5.00,0.00,29.6,28.5,00.0,38.5,31.4,18.2,0000.0,0009.12,0004.45,0003.97
2022-05-24 04:29:00,,0826.9,4.99,0.00,29.6,28.5,00.0,38.5,31.4,18.4,0000.0,0009.35,0004.45,0003.96
2022-05-24 04:30:00,,0826.9,4.99,0.00,29.6,28.5,00.0,38.5,31.4,18.5,0000.0,0009.30,0004.42,0003.96
2022-05-24 04:31:00,,0826.8,5.01,0.00,29.6,28.5,00.0,38.5,31.4,18.4,0000.0,0008.89,0004.40,0003.96
2022-05-24 04:32:00,,0826.8,5.01,0.00,29.6,28.5,00.0,38.5,31.4,18.3,0000.0,0008.41,0004.41,0003.96
2022-05-24 04:33:00,,0826.8,5.01,0.00,29.6,28.5,00.0,38.5,31.4,18.4,0000.0,0008.29,0004.41,0003.95
2022-05-24 04:34:00,,0826.8,4.99,0.00,29.6,28.5,00.0,38.5,31.4,18.4,0000.0,0007.98,0004.43,0003.97
2022-05-24 04:35:00,,0826.8,4.99,0.00,29.6,28.5,00.0,38.5,31.4,18.3,0000.0,0007.83,0004.42,0004.00
2022-05-24 04:36:00,,0826.9,5.00,0.00,29.6,28.5,00.0,38.5,31.4,18.2,0000.0,0007.90,0004.45,0004.01
2022-05-24 04:37:00,,0826.9,4.97,0.00,29.6,28.5,00.0,38.5,31.4,18.1,0000.0,0008.02,0004.48,0004.04
2022-05-24 04:38:00,,0826.8,5.00,0.00,29.6,28.5,00.0,38.5,31.4,18.0,0000.0,0008.07,0004.50,0004.05
2022-05-24 04:39:00,,0826.8,5.00,0.00,29.6,28.5,00.0,38.5,31.4,17.9,0000.0,0007.99,0004.53,0004.08
2022-05-24 04:40:00,,0826.8,5.00,0.00,29.6,28.5,00.0,38.5,31.4,17.9,0000.0,0007.94,0004.60,0004.11
2022-05-24 04:41:00,,0826.8,5.00,0.00,29.6,28.5,00.0,38.5,31.4,18.0,0000.0,0008.03,0004.66,0004.14
2022-05-24 04:42:00,,0826.8,5.00,0.00,29.6,28.5,00.0,38.5,31.4,18.0,0000.0,0008.09,0004.70,0004.16
2022-05-24 04:43:00,,0826.8,5.00,0.00,29.6,28.5,00.0,38.5,31.4,18.1,0000.0,0008.14,0004.72,0004.18
2022-05-24 04:44:00,,0826.7,4.99,0.00,29.6,28.5,00.0,38.5,31.4,18.0,0000.0,0008.95,0004.73,0004.18
2022-05-24 04:45:00,,0826.7,5.02,0.00,29.6,28.5,00.0,38.5,31.4,18.0,0000.0,0009.15,0004.72,0004.19
2022-05-24 04:46:00,,0826.7,5.01,0.00,29.6,28.5,00.0,38.5,31.4,18.1,0000.0,0009.23,0004.74,0004.19
2022-05-24 04:47:00,,0826.7,5.00,0.00,29.6,28.5,00.0,38.5,31.4,18.3,0000.0,0009.64,0004.72,0004.18
2022-05-24 04:48:00,,0826.7,5.01,0.00,29.6,28.5,00.0,38.5,31.4,18.1,0000.0,0009.73,0004.69,0004.18
2022-05-24 04:49:00,,0826.7,5.00,0.00,29.6,28.5,00.0,38.5,31.4,18.2,0000.0,0009.66,0004.69,0004.19
2022-05-24 04:50:00,,0826.7,4.99,0.00,29.6,28.5,00.0,38.5,31.4,18.3,0000.0,0009.52,0004.68,0004.19
2022-05-24 04:51:00,,0826.7,5.01,0.00,29.6,28.5,00.0,38.5,31.4,18.4,0000.0,0009.38,0004.67,0004.19
2022-05-24 04:52:00,,0826.7,5.00,0.00,29.6,28.5,00.0,38.5,31.4,18.5,0000.0,0009.58,0004.66,0004.19
2022-05-24 04:53:00,,0826.7,5.01,0.00,29.6,28.5,00.0,38.5,31.4,18.5,0000.0,0009.74,0004.62,0004.17
2022-05-24 04:54:00,,0826.7,5.00,0.00,29.6,28.5,00.0,38.5,31.4,18.5,0000.0,0009.76,0004.62,0004.17
2022-05-24 04:55:00,,0826.7,4.99,0.00,29.6,28.5,00.0,38.5,31.4,18.6,0000.0,0009.10,0004.63,0004.19
2022-05-24 04:56:00,,0826.7,5.00,0.00,29.6,28.4,00.0,38.5,31.3,18.7,0000.0,0009.27,0004.65,0004.20
2022-05-24 04:57:00,,0826.7,5.00,0.00,29.5,28.4,00.0,38.5,31.3,18.8,0000.0,0009.70,0004.71,0004.22
2022-05-24 04:58:00,,0826.7,5.00,0.00,29.5,28.4,00.0,38.5,31.3,19.0,0000.0,0009.25,0004.72,0004.23
2022-05-24 04:59:00,,0826.7,4.99,0.00,29.5,28.4,00.0,38.5,31.3,19.1,0000.0,0008.92,0004.73,0004.24
